Location: Chmeln�
(49.6483°N, 14.9871°E)
Time: 07:42:08
(UTC+00:00)

Lacrosse 5 rocket - Pass Details

Date: 25 January 2021
Orbit: 465 x 630 km, 57.0° (Epoch: 04 March)

Event Time Altitude Azimuth Distance (km) Brightness Sun altitude
Exits shadow 04:50:11 17° 213° (SSW) 1,299 3.0 -17.8°
Drops below altitude 10° 04:51:56 10° 187° (S) 1,677 3.8 -17.5°
Sets 04:54:29 0° 168° (SSE) 2,528 5.0 -17.1°
